Flag for U.S.A. Weather past 2 weeks in Leesburg, Virginia, U.S.A.

Now
23 °F

Clear.


Feels Like: 10 °F
Forecast: 17 / 32 °F
Wind: 16 mph from Northwest

Location: Leesburg / Godfrey

Current Time: Jan 30, 2015 at 8:44:15 PM

Latest Report: Jan 30, 2015 at 8:15 PM


Visibility: 10 mi

Pressure: 30.26 "Hg

Humidity: 63%

Dew point: 12 °F

Location of LeesburgLocation

Historic Weather in Leesburg — Graph

°F

Leesburg temperature yesterday

Maximum temperature yesterday: 36 °F (at 2:35 PM)
Minimum temperature yesterday: 16 °F (at 5:35 AM)
Average temperature yesterday: 28 °F

Past Weeks' High & Low Weather Summary

 TemperatureHumidityPressure
High46 °F (Jan 19, 2:15 PM)100% (Jan 15, 9:55 PM)30.41 "Hg (Jan 15, 9:55 PM)
Low16 °F (Jan 29, 5:35 AM)40% (Jan 28, 5:15 PM)29.48 "Hg (Jan 24, 2:35 PM)
Average34 °F81%30.02 "Hg
* Reported Jan 15 7:15 PM — Jan 30 7:15 PM, Leesburg, Weather by CustomWeather, © 2014

Note: Actual official high and low records may vary slightly from our data, if they occured in-between our weather recording intervals... More about our weather records

Advertising

Leesburg weather history for previous 24 hours

 ConditionsComfort  
Time TempWeatherWind HumidityBarometerVisibility
7:15 PM
Jan 30
27 °FPassing clouds.29 mph54%30.22 "Hg10 mi
6:55 PM27 °FClear.31 mph59%30.22 "Hg10 mi
6:15 PM28 °FClear.18 mph55%30.21 "Hg10 mi
5:55 PM28 °FPassing clouds.23 mph55%30.21 "Hg10 mi
5:35 PM28 °FPassing clouds.21 mph59%30.20 "Hg10 mi
5:15 PM30 °FScattered clouds.21 mph55%30.19 "Hg10 mi
4:55 PM30 °FScattered clouds.18 mph55%30.18 "Hg10 mi
4:15 PM32 °FScattered clouds.22 mph55%30.15 "Hg10 mi
3:55 PM32 °FScattered clouds.17 mph55%30.13 "Hg10 mi
3:15 PM34 °FScattered clouds.25 mph56%30.11 "Hg10 mi
2:55 PM34 °FOvercast.21 mph56%30.10 "Hg10 mi
2:35 PM34 °FOvercast.14 mph60%30.10 "Hg10 mi
2:15 PM34 °FOvercast.18 mph60%30.09 "Hg10 mi
1:55 PM34 °FOvercast.21 mph56%30.07 "Hg10 mi
1:35 PM36 °FOvercast.20 mph52%30.07 "Hg10 mi
1:15 PM36 °FPartly sunny.25 mph52%30.06 "Hg10 mi
12:55 PM37 °FSunny.21 mph48%30.06 "Hg10 mi
12:35 PM36 °FSunny.20 mph48%30.06 "Hg10 mi
12:15 PM37 °FSunny.25 mph48%30.06 "Hg10 mi
11:55 AM36 °FSunny.31 mph48%30.06 "Hg10 mi
11:35 AM37 °FScattered clouds.20 mph52%30.06 "Hg10 mi
11:15 AM36 °FMore clouds than sun.24 mph60%30.06 "Hg10 mi
10:55 AM36 °FCloudy.21 mph75%30.06 "Hg10 mi
10:35 AM36 °FBroken clouds.20 mph87%30.05 "Hg10 mi
10:15 AM36 °FBroken clouds.13 mph93%30.04 "Hg10 mi
9:55 AM36 °FLight snow. Cloudy.10 mph93%30.04 "Hg5 mi
9:35 AM36 °FLight snow. More clouds than sun.15 mph87%30.03 "Hg3 mi
9:15 AM37 °FCloudy.15 mph75%30.02 "Hg10 mi
8:55 AM37 °FMore clouds than sun.9 mph75%30.02 "Hg10 mi
8:15 AM36 °FOvercast.9 mph75%30.00 "Hg10 mi
7:55 AM36 °FOvercast.7 mph75%30.00 "Hg10 mi
7:15 AM36 °FOvercast.7 mph75%30.00 "Hg10 mi
6:55 AM36 °FMostly cloudy.9 mph75%30.00 "Hg10 mi
6:15 AM36 °FPassing clouds.9 mph75%29.98 "Hg10 mi
5:55 AM37 °FClear.13 mph70%29.96 "Hg10 mi
5:15 AM37 °FClear.13 mph81%29.95 "Hg10 mi
4:55 AM37 °FPassing clouds.13 mph81%29.94 "Hg10 mi
4:35 AM37 °FPassing clouds.8 mph81%29.93 "Hg10 mi
4:15 AM37 °FPassing clouds.12 mph81%29.93 "Hg10 mi
3:55 AM39 °FMostly cloudy.14 mph75%29.93 "Hg10 mi
3:35 AM39 °FMostly cloudy.17 mph75%29.92 "Hg10 mi
3:15 AM41 °FMostly cloudy.20 mph70%29.92 "Hg10 mi
2:55 AM41 °FOvercast.16 mph76%29.92 "Hg10 mi
2:35 AM41 °FOvercast.20 mph76%29.92 "Hg10 mi
2:15 AM39 °FOvercast.10 mph81%29.92 "Hg10 mi
1:55 AM36 °FOvercast.5 mph87%29.91 "Hg10 mi
1:35 AM36 °FMostly cloudy.5 mph81%29.92 "Hg10 mi
1:15 AM36 °FMostly cloudy.7 mph87%29.91 "Hg10 mi
12:55 AM36 °FMostly cloudy.5 mph87%29.92 "Hg10 mi
12:15 AM34 °FMostly cloudy.5 mph87%29.93 "Hg10 mi
11:55 PM
Jan 29
34 °FMostly cloudy.3 mph87%29.92 "Hg10 mi
11:15 PM34 °FOvercast.6 mph87%29.92 "Hg10 mi
10:15 PM34 °FOvercast.6 mph87%29.94 "Hg10 mi
9:55 PM34 °FMostly cloudy.5 mph87%29.95 "Hg10 mi
9:35 PM34 °FOvercast.No wind87%29.96 "Hg10 mi
9:15 PM34 °FMostly cloudy.3 mph87%29.96 "Hg10 mi
8:55 PM32 °FMostly cloudy.3 mph93%29.98 "Hg10 mi
8:35 PM32 °FOvercast.5 mph93%29.98 "Hg10 mi
8:15 PM32 °FOvercast.3 mph93%29.99 "Hg10 mi
Weather by CustomWeather, © 2014

See weather overviewHow to use our weather pages